Regional Weather Roundup
Issued by NWS Green Bay, WI

Home | Current Version | Previous Version | Graphics & Text | Print | Product List | Glossary Off
Versions: 1 2 3 4 5 6 7 8 9 10 11 12 13 14 15 16 17 18 19 20 21 22 23 24 25 26 27 28 29 30 31 32 33 34 35 36 37 38 39 40 41 42 43 44 45 46 47 48 49 50

000
ASUS43 KGRB 312110
RWRGRB

NORTH-CENTRAL AND NORTHEAST WISCONSIN REGIONAL WEATHER ROUNDUP
NATIONAL WEATHER SERVICE GREEN BAY WI
300 PM CST SAT JAN 31 2015

WIZ005-009-010>012-018-019-312200-
NORTH CENTRAL WISCONSIN

CITY           SKY/WX    TMP DP  RH WIND       PRES   REMARKS
IRONWOOD       CLOUDY    18   9  68 N8        30.21R WCI   7
MANITOWISH WTR FLURRIES  18  11  73 N6        30.18S WCI  10
ARBOR VITAE    LGT SNOW  22  14  72 N9        30.16S
EAGLE RIVER    LGT SNOW  21  12  68 N12       30.15S WCI   9
LAND O LAKES   LGT SNOW  18  12  77 N8        30.18R WCI   8
RHINELANDER    CLOUDY    22  13  68 N7        30.15R
PHILLIPS       CLOUDY    21  12  68 N7        30.16S
ANTIGO         CLOUDY    23  17  78 N10       30.14R
TOMAHAWK       CLOUDY    23  15  71 N8        30.16S
MERRILL        CLOUDY    25  17  72 N8        30.16R
$$

WIZ013-073-312200-
NORTHEAST WISCONSIN

CITY           SKY/WX    TMP DP  RH WIND       PRES   REMARKS
IRON MOUNTAIN  CLOUDY    24  13  62 N14       30.16R
MARINETTE      CLOUDY    28  18  64 N10       30.17S
OCONTO         CLOUDY    28  19  67 MISG      30.18R
$$

WIZ017-030-035>037-045-312200-
CENTRAL WISCONSIN

CITY           SKY/WX    TMP DP  RH WIND       PRES   REMARKS
MEDFORD        CLOUDY    25  17  71 N7        30.14S
WAUSAU         CLOUDY    26  17  68 N8        30.14S
MOSINEE          N/A     27  21  80 N9        30.16R
MARSHFIELD     CLOUDY    27  18  69 NE6       30.16R
WISC RAPIDS    CLOUDY    28  18  66 N9        30.18R
STEVENS POINT  CLOUDY    26  18  72 N8        30.16S
WAUPACA        CLOUDY    31  21  65 N3        30.17S
SHAWANO        CLOUDY    31  20  63 N3        30.17R
CLINTONVILLE   CLOUDY    30  19  64 N6        30.16S
$$

WIZ038-039-048-051-312200-
FOX VALLEY

CITY           SKY/WX    TMP DP  RH WIND       PRES   REMARKS
NWS GREEN BAY  CLOUDY    28  19  69 NW5       30.18R
APPLETON       CLOUDY    27  18  69 N3        30.17R
OSHKOSH        CLOUDY    29  19  66 NE6       30.17R
FOND DU LAC    CLOUDY    28  19  69 NE8       30.16S
$$

WIZ022-050-052-312200-
EAST CENTRAL WISCONSIN

CITY           SKY/WX    TMP DP  RH WIND       PRES   REMARKS
STURGEON BAY   CLOUDY    27  18  69 N7        30.19S
MANITOWOC      CLOUDY    29  21  72 N6        30.18R
SHEBOYGAN      CLOUDY    30  19  63 N5        30.16S
$$

LMZ563-521-522-541>543-312200-
LAKESHORE

STATION/POSITION TIME  TEMP    WIND        PRES    VSBY  WAVE
                       AIR SEA DIR/SP/G                  HT/PER
                 (UTC) (F)     (DEG/KT/KT) (MB)    (MI)  (FT/S)
SHEBOYGAN LKSHOR 2100   29      10/  8/  9 1022.9R
KEWAUNEE LKSHORE 2100   27      10/  5/  7 1021.1S
TWO RIVERS CG    2000   28 32              1021.2      6   0
NORTHPORT PIER   2100   27     360/ 10/ 11 1022.0S
SISTER BAY LKSHO 2100   30        CALM       N/A
CHAMBERS ISLAND  2100   29     300/  4/  6 1022.0R
MENOMINEE LKSHOR 2100   28     310/  9     1022.3F
$$



USA.gov is the U.S. government's official web portal to all federal, state and local government web resources and services.